COSMOS 1867 COOLANT

Satellite information

Favourite Embed

Satellite Type and Status

DEBRISIN ORBIT

Key statistics

Satellite COSMOS 1867 COOLANT at a glance.

Uptime

13997

Days in orbit

Revolutions

≈ 14.3

Per day

Orbit

LEO

Low Earth Orbit

Inclination

65.0

Latest

Satellite identification and parameters

Extended collection of information and parameters for COSMOS 1867 COOLANT.

Object identification

Identified? True

Debris? False

Object name: COSMOS 1867 COOLANT

International designator: 1987-060AS

Object number (NORAD): 43325

Object ID (CCSDS): 43325

Country: COMMONWEALTH OF INDEPENDENT STATES (CIS)

Current information (Y/N): Y

RCS size: SMALL

Orbital parameters

Period: 100.355 minutes

Inclination: 65.0094 deg

SMA: 7153.523 km

Apoapsis: 785.709 km

Periapsis: 765.067 km

RAAN: 280.4344 deg

Eccentricy: 0.00144281

Argument of periapsis: 271.8659 deg

Mean anomaly: 88.0775 deg

Mean motion: 14.34903884 rev/day

Mean motion (dot): 0.00000747 rev/day2

B* drag term: 0.00029739608 1/REarth

Two-line elements (TLE)

Creation date: Nov. 2, 2025, 5:34 p.m.

Reference frame: TEME

Reference center: EARTH

Epoch: Nov. 1, 2025, 4:15 p.m. UTC

TLE line 0: 0 COSMOS 1867 COOLANT

TLE line 1: 1 43325U 87060AS 25305.67741773 .00000747 00000-0 29740-3 0 9998

TLE line 2: 2 43325 65.0094 280.4344 0014428 271.8659 88.0775 14.34903884565910

Live tracking on map

Real-time ground track for satellite COSMOS 1867 COOLANT.

In-orbit conjunctions

A list of the most updated potential collisions computed for object COSMOS 1867 COOLANT.

Target Orbit TCA Probability of collision Miss distance Type
DELTA 2 R/B SSO 2025-04-27 16:25:29 0.0002439429 56.0 (m) ROCKET BODY

Associated space launch

Nuclear-powered magnetospheric research satellite

COSMOS 1867 COOLANT was lifted into orbit during the mission ‘Tsiklon-2 | Plasma-A 2’, on board a Tsiklon-2 space rocket.

The launch took place on July 10, 1987, 3:35 p.m. from 90.

For more information about the launch, click the button.

Launch to space Tsiklon-2 | Plasma-A 2
Tsiklon-2 | Plasma-A 2

Agency: N/A

Status: Launch Successful

Launch date: July 10, 1987, 3:35 p.m. UTC

Rocket: Tsiklon-2

Launch pad: 90

Location: Baikonur Cosmodrome, Republic of Kazakhstan

...

Latest news about this satellite

There are no fresh news available about this satellite. Check back as we update our databases every day.


Newsletter sign-up

Weekly statistics, charts and insights to help you stay on top of the space industry.